Jackpot

Texas Poker Multi Jackpot System

Kini Telah hadir Jackpot SUPER ROYAL FLUSH

Kini Telah hadir Jackpot 2000 (khusus table VIP keatas).

Ikutilah global jackpot yang tersedia di system kami, dengan system jackpot terbaru dan pertama di indonesia, anda dapat membeli jackpot dengan harga 100 rupiah saja dan menangkan hadiahnya hingga puluhan juta rupiah.

Jackpot bukanlah suatu keharusan untuk dibeli, namun kami memberikan suatu fitur tambahan untuk member tercinta dari www.indogenting.online.

Terdapat tiga pilihan harga jackpot yang bisa anda beli yaitu :100,500,1000 dan 2000(khusus table VIP Keatas) rupiah.

Hadiah dari Multi jackpot system www.indogenting.online

  1. full house x 10 harga jackpot yang anda beli.
      (contoh:anda membeli 1000 maka:1000 X10 = 10.000)
  2. four of kind x 250 harga jackpot yang anda beli
      (contoh:anda membeli 1000 maka:1000 X250 = 250.000)
  3. Straight flush x 1200
      (contoh:anda membeli 1000 maka:1000 X1200 = 1.200.000)
  4. Royal flush x 10000 harga jackpot yang anda beli
      (contoh:anda membeli 1000 maka:1000 X10000 = 10.000.000)
  5. SUPER ROYAL FLUSH x 30000 harga jackpot yang anda beli
      (contoh:anda membeli 1000 maka:1000 X30000 = 30.000.000)

Kondisi kartu

  1. full house adalah kondisi kartu dimana kartu anda dan kartu tengah dengan total 7 kartu bisa mendapatkan nilai 5 kartu dengan kombinasi 1 tris(three of kind) dan 1 pair, contoh 3 kartu 10 dan 2 kartu 5
  2. Four of kind adalah kondisi kartu dimana kartu anda dan kartu tengah dengan total 7 kartu bisa mendapatkan nilai 5 kartu dengan kombinasi 4 kartu yang sama jumlah dan 1 kartu apapun juga contoh anda mendapatkan 4 buah kartu angka 3 dan 1 kartu apapun.
  3. Staright flush adalah kondisi kartu dimana kartu anda dan kartu tengah dengan total 7 kartu bisa mendapatkan nilai 5 kartu dengan kombinasi seri / staright dengan kembang yang sama contoh : urutan kartu dari angka 5, 6, 7, 8 , 9 10 dengan kembang yg sama misalnya as hati
  4. Royal flush adalah kondisi kartu dimana kartu anda dan kartu tengah dengan total 7 kartu bisa mendapatkan nilai 5 kartu dengan kombinasi seri / staright dengan kembang yang sama tetapi kartu tersebut haruslah dimulai dari 10. contoh 10, Queen, Jack, King dan aces dengan kembang yang sama
  5. Super Royal flush adalah kondisi kartu dimana Kedua kartu anda digabung dengan 3 kartu pertama meja haruslah royal flush. contoh kartu anda 10,Queen kembang sama dan 3 kartu pertama meja adalah Jack, King dan aces dengan kembang yang sama

Demikian adalah penjelasan dari Multi Jackpot www.indogenting.online terima kasih dan selamat bermain salam hoki dari kami

Texas Poker Jackpot Winner

TOP SUPER ROYAL FLUSH
No.TanggalNamaPriceWin
117/07 14:30RAIISS_AASuper Royal flush6,000,000
217/07 14:23LB995745Super Royal flush1,500,000
317/07 11:25YUS156Super Royal flush6,000,000
417/07 10:15INDRA146Super Royal flush1,500,000
517/07 07:55MAMSKI12Super Royal flush30,000,000
TOP ROYAL FLUSH
No.TanggalNamaPriceWin
117/07 20:12BOCAH444Royal flush10,000,000
217/07 19:39DHOOMSDAY2Royal flush2,000,000
317/07 19:31MEGALIT00Royal flush5,000,000
417/07 19:18E8D64840Royal flush2,000,000
517/07 19:06GILL9Royal flush10,000,000
TOP STRAIGHT FLUSH
No.TanggalNamaPriceWin
117/07 20:33KHAERUL12Straight Flush2,400,000
217/07 20:33BUKANWAHYUStraight Flush120,000
317/07 20:33ENGGAR46Straight Flush240,000
417/07 20:32DWBTO2944Straight Flush600,000
517/07 20:27DEPOPYStraight Flush240,000
LATEST JACKPOT
No.TanggalNamaPriceWin
117/07 20:34NYT1905Full House20,000
217/07 20:34KUNJUNG99Full House2,000
317/07 20:34SRTLAEROXFull House5,000
417/07 20:34PT4DANDI12Full House2,000
517/07 20:34BOOLTAH1Full House2,000
617/07 20:34AING1503Full House5,000
717/07 20:34RESTA2113Full House2,000
817/07 20:34BA2234TEFull House10,000
917/07 20:34BUSS12Full House5,000
1017/07 20:34SHARIKH4Full House2,000
1117/07 20:34UL17Full House10,000
1217/07 20:34ABRAG089Full House5,000
1317/07 20:34SAYWIN11Full House5,000
1417/07 20:34SAM868Full House10,000
1517/07 20:34BULDOZER12Full House10,000
1617/07 20:34LAYAR8888Full House10,000
1717/07 20:34RAVIKA08Full House10,000
1817/07 20:34H4NS__Full House2,000
1917/07 20:34ZYMBOFull House1,000
2017/07 20:34S368D20XQ6Full House5,000
2117/07 20:34VELER45Full House5,000
2217/07 20:34BUCAT3XFull House2,000
2317/07 20:34RIMO43Four Of A Kind50,000
2417/07 20:34TEMPIK77Full House2,000
2517/07 20:34MATE13Full House2,000
2617/07 20:34B24E44ACFull House10,000
2717/07 20:34HOPETOHOPEFull House5,000
2817/07 20:34AZ0RQWJ47FFull House10,000
2917/07 20:34ER1CK79Full House10,000
3017/07 20:34POLOS212Four Of A Kind50,000
3117/07 20:34KONDA303Four Of A Kind25,000
3217/07 20:34PAYZHAL21Full House10,000
3317/07 20:34BRANDON999Full House5,000
3417/07 20:34JOVLAZFull House2,000
3517/07 20:34ANZAFAFour Of A Kind125,000
3617/07 20:34ROKY07Full House5,000
3717/07 20:34HAMB4Full House10,000
3817/07 20:34RACUN46Full House2,000
3917/07 20:34ADMOB21Full House1,000
4017/07 20:34ANEHMEAFull House5,000
4117/07 20:34GHUNTUERFull House5,000
4217/07 20:34JUNKEP35Full House2,000
4317/07 20:34TOLOP999Four Of A Kind50,000
4417/07 20:34QORIN99Full House10,000
4517/07 20:34LELALELEFull House5,000
4617/07 20:34OKA12Full House2,000
4717/07 20:34ANUAINK666Full House10,000
4817/07 20:34TETEH78Full House10,000
4917/07 20:34INIAS99Full House1,000
5017/07 20:34G1BS0NFour Of A Kind50,000

Domino Multi Jackpot System

Ikutilah global jackpot yang tersedia di system kami, dengan system jackpot terbaru dan pertama di indonesia, anda dapat membeli jackpot dengan harga 100 rupiah saja dan menangkan hadiahnya hingga puluhan juta rupiah.

Jackpot bukanlah suatu keharusan untuk dibeli, namun kami memberikan suatu fitur tambahan untuk member tercinta dari www.indogenting.online.

Terdapat tiga pilihan harga jackpot yang bisa anda beli yaitu :100,500 dan 1000 rupiah.

Hadiah dari Multi jackpot system www.indogenting.online

  1. Murni Kecil x 50 harga jackpot yang anda beli.
      (contoh:anda membeli 1000 maka:1000 X 50 = 50.000)
  2. Murni Besar x 50 harga jackpot yang anda beli
      (contoh:anda membeli 1000 maka:1000 X 50 = 50.000)
  3. BALAK x 100 harga jackpot yang anda beli
      (contoh:anda membeli 1000 maka:1000 X 100 = 100.000)
  4. ENAM DEWA x 6666 harga jackpot yang anda beli
      (contoh:anda membeli 1000 maka:1000 X 6666 = 6.666.000)

Demikian adalah penjelasan dari Multi Jackpot www.indogenting.online terima kasih dan selamat bermain salam hoki dari kami

Domino Jackpot Winner

TOP ENAM DEWA
No.TanggalNamaPriceWin
117/07 20:25MASTER0087murni enam6,666,000
217/07 18:56OBUR17murni enam666,600
317/07 18:28F1GUmurni enam6,666,000
417/07 17:38CIHUYYY_9murni enam666,600
517/07 17:08TITAN25murni enam3,333,000
TOP BALAK
No.TanggalNamaPriceWin
117/07 20:33YOGII999balak100,000
217/07 20:29VEDINXP093balak50,000
317/07 20:28R42426K9HJbalak100,000
417/07 20:28METI26balak50,000
517/07 20:28AURA123balak10,000
LATEST JACKPOT
No.TanggalNamaPriceWin
117/07 20:34NURFA12murni kecil50,000
217/07 20:34AYONK90murni besar50,000
317/07 20:34LB993589murni besar50,000
417/07 20:34TOTIY888murni kecil5,000
517/07 20:34ROJALI897murni besar25,000
617/07 20:33YOGII999balak100,000
717/07 20:33MAZAYA66murni besar25,000
817/07 20:33MOMPISmurni besar5,000
917/07 20:33SARIDIN12murni besar50,000
1017/07 20:33BAGONG011murni besar5,000
1117/07 20:32C16EEL567lucky9925,000
1217/07 20:32IPUL98murni besar50,000
1317/07 20:32NLYmurni besar5,000
1417/07 20:32KL1W0NP101murni besar25,000
1517/07 20:31WIRO8212murni kecil50,000
1617/07 20:31KERONJO55murni kecil50,000
1717/07 20:31A13NGlucky9910,000
1817/07 20:31ANGOPAmurni besar25,000
1917/07 20:30OODEE420murni kecil25,000
2017/07 20:30OBI6433murni besar50,000
2117/07 20:30ASQAR01murni besar25,000
2217/07 20:30USSPmurni kecil50,000
2317/07 20:30QJHG5S7WZXmurni kecil50,000
2417/07 20:30NENGTIA140murni besar50,000
2517/07 20:30BINSAR07murni kecil50,000
2617/07 20:29VEDINXP093balak50,000
2717/07 20:29YOFI88murni kecil5,000
2817/07 20:28R42426K9HJbalak100,000
2917/07 20:28METI26balak50,000
3017/07 20:28RATTIH99murni besar50,000
3117/07 20:28AURA123balak10,000
3217/07 20:28TAULRMI0REbalak50,000
3317/07 20:28R_MINANGmurni kecil50,000
3417/07 20:28VERYVRmurni kecil50,000
3517/07 20:27AMANGYANImurni besar50,000
3617/07 20:27SELALUQQ99murni kecil50,000
3717/07 20:27LOLOO_12murni besar25,000
3817/07 20:27OLAVmurni besar25,000
3917/07 20:27LB992882murni besar50,000
4017/07 20:26BLGmurni kecil50,000
4117/07 20:26RIMBA57murni besar5,000
4217/07 20:25BENY54murni besar5,000
4317/07 20:25TU4Xmurni kecil50,000
4417/07 20:25BLUCOOOORRmurni kecil50,000
4517/07 20:25MASTER0087murni enam6,666,000
4617/07 20:25ASYRAF2014murni kecil50,000
4717/07 20:25KOCHY11murni besar50,000
4817/07 20:24INK670murni besar25,000
4917/07 20:24MINOK123murni besar5,000
5017/07 20:24MGELIK9murni besar50,000

Ceme Multi Jackpot System

Jackpot dilihat dari gabungan kartu pemain dengan kartu bandar. Bandar harus membeli jackpot sebanyak jumlah player yang sedang duduk. Sebagai contoh bila terdapat 3 pemain duduk bermain, dan bandar memutuskan untuk membeli jackpot Rp 1.000, maka pada periode tersebut bandar akan membeli jackpot sebanyak 3xRp1.000 = Rp3.000.

Jackpot bukanlah suatu keharusan untuk dibeli, namun kami memberikan suatu fitur tambahan untuk member tercinta dari www.indogenting.online.

Terdapat tiga pilihan harga jackpot yang bisa anda beli yaitu :100,500 dan 1000 rupiah.

Hadiah dari Multi jackpot system www.indogenting.online

  1. Murni Kecil x 50 harga jackpot yang anda beli.
      (contoh:anda membeli 1000 maka:1000 X 50 = 50.000)
  2. Murni Besar x 50 harga jackpot yang anda beli
      (contoh:anda membeli 1000 maka:1000 X 50 = 50.000)
  3. BALAK x 200 harga jackpot yang anda beli
      (contoh:anda membeli 1000 maka:1000 X 200 = 200.000)
  4. ENAM DEWA x 6666 harga jackpot yang anda beli
      (contoh:anda membeli 1000 maka:1000 X 6666 = 6.666.000)

Demikian adalah penjelasan dari Multi Jackpot www.indogenting.online terima kasih dan selamat bermain salam hoki dari kami

Ceme Jackpot Winner

TOP ENAM DEWA
No.TanggalNamaPriceWin
117/07 20:29AQPIPETmurni enam6,666,000
217/07 20:25D5598565murni enam6,666,000
317/07 20:25JIANREY9murni enam666,600
417/07 19:59PET4ARUNGQmurni enam6,666,000
517/07 19:59YONGKRU44murni enam6,666,000
TOP BALAK
No.TanggalNamaPriceWin
117/07 20:34ORANGSSH98balak20,000
217/07 20:34CARLO00balak100,000
317/07 20:34THE_GEMBELbalak100,000
417/07 20:34HAMDJRbalak20,000
517/07 20:34IPUNK80balak200,000
LATEST JACKPOT
No.TanggalNamaPriceWin
117/07 20:34ORANGSSH98balak20,000
217/07 20:34CARLO00balak100,000
317/07 20:34THE_GEMBELbalak100,000
417/07 20:34BBANG256murni besar50,000
517/07 20:34FBR9murni besar5,000
617/07 20:34QQTOPYAmurni kecil5,000
717/07 20:34LB997674murni kecil25,000
817/07 20:34GODAR86murni kecil50,000
917/07 20:34DICKY324murni kecil5,000
1017/07 20:34ZEBRAG194murni kecil5,000
1117/07 20:34PUSAKO23murni kecil25,000
1217/07 20:34QGQREZOXCWmurni kecil50,000
1317/07 20:34HAMDJRbalak20,000
1417/07 20:34HAMDJRmurni besar5,000
1517/07 20:34IPUNK80balak200,000
1617/07 20:34TAP1996murni besar50,000
1717/07 20:33ALFISAPU29murni kecil5,000
1817/07 20:33AZURA888murni besar5,000
1917/07 20:33COROK71murni kecil25,000
2017/07 20:33EDALUIS114murni besar50,000
2117/07 20:33PAKDE1980murni besar50,000
2217/07 20:33RABUNAmurni kecil5,000
2317/07 20:33VAY11balak200,000
2417/07 20:33WAHYUOSAKAbalak200,000
2517/07 20:33INDRA146balak20,000
2617/07 20:33PAJARTbalak100,000
2717/07 20:33CHENZEEmurni kecil25,000
2817/07 20:33VJ3murni kecil5,000
2917/07 20:33ALIZIDANmurni kecil50,000
3017/07 20:33LB997194murni besar25,000
3117/07 20:33SURIL29murni besar25,000
3217/07 20:33PLSJUNIOR1murni kecil50,000
3317/07 20:33VEGA2913murni kecil50,000
3417/07 20:33QQTOPYAmurni besar5,000
3517/07 20:33NAVADAAA99murni kecil50,000
3617/07 20:32RCHMN88murni besar50,000
3717/07 20:32IDUTEAmurni kecil50,000
3817/07 20:32RABUNAmurni besar5,000
3917/07 20:32RRHOKI99balak200,000
4017/07 20:32BLEDUNNmurni besar5,000
4117/07 20:32DARMIN831murni kecil50,000
4217/07 20:32GO67balak100,000
4317/07 20:32LUCISIA078balak100,000
4417/07 20:32RAZA44murni besar25,000
4517/07 20:32FSZMPO2718murni besar5,000
4617/07 20:32N5TQSPECQOmurni besar25,000
4717/07 20:32YONGKRU44murni besar50,000
4817/07 20:32PEHONG777murni besar50,000
4917/07 20:32MGJP123murni kecil25,000
5017/07 20:31ZONFBH3ELWmurni kecil50,000